Regional Weather Roundup
Issued by NWS

Home | Current Version | Previous Version | Text Only | Print | Product List | Glossary On
Versions: 1 2 3 4 5 6 7 8 9 10 11 12 13 14 15 16 17 18 19 20 21 22 23 24 25 26 27 28 29 30 31 32 33 34 35 36 37 38 39 40 41 42 43 44 45 46 47 48 49 50
000
ASHW40 PHFO 211133
RWRHI

WEATHER ROUNDUP FOR HAWAII
NATIONAL WEATHER SERVICE HONOLULU HI
100 AM HST WED OCT 21 2020

THIS IS AN AUTOMATED REPORT THAT HAS NOT BEEN QUALITY CONTROLLED.

NOTE..."FAIR" INDICATES FEW OR NO CLOUDS BELOW 12,000 FEET WITH NO
SIGNIFICANT WEATHER AND/OR OBSTRUCTIONS TO VISIBILITY.

* - THESE SITES REPORT LIMITED FIELDS
# - BUOY DATA PROVIDED BY PACIFIC ISLANDS OCEAN OBSERVING SYSTEM.

HIZ001>004-211200-
KAUAI-NIIHAU-

CITY           SKY/WX    TMP DP  RH WIND       PRES   REMARKS
LIHUE APT        N/A    N/A N/A N/A MISG      29.92F
PORT ALLEN*      N/A     73 N/A N/A N7          N/A
POIPU*         NOT AVBL
PRINCEVILLE*     N/A     73 N/A N/A W2          N/A
KOKOLE POINT*  NOT AVBL
MOLOAA DAIRY*    N/A     73  68  83 NW3G17      N/A
WAIMEA HTS*    NOT AVBL
PUU OPAE*      NOT AVBL
PUU LUA*       NOT AVBL
MAKAHA RIDGE*    N/A     70  64  83 SE1         N/A
$$

HIZ005>011-211200-
OAHU-

CITY           SKY/WX    TMP DP  RH WIND       PRES   REMARKS
HONOLULU       MOCLDY    77  71  82 NW7       29.92R
KALAELOA       MOCLDY    76  73  91 CALM      29.93S
KANEOHE MCB    PTCLDY    76  76 100 SE5       29.87F
WHEELER FIELD  FAIR      71  71 100 W3        29.92S
BELLOWS*         N/A     73 N/A N/A W1          N/A
KAHUKU*          N/A     72 N/A N/A W1          N/A
WHEELER*       NOT AVBL
WAIANAE HARBOR NOT AVBL
DILLINGHAM*      N/A     73  73 100 S1          N/A
KAHUKU TRN*      N/A     73  70  88 S3          N/A
KAWAILOA*      NOT AVBL
KII*             N/A     73  72  94 W2G8        N/A
MAKUA RANGE*   NOT AVBL
OAHU FOREST NW NOT AVBL
SCHOFIELD BRK*   N/A     70  70 100 SW1         N/A
SCHOFIELD S*   NOT AVBL
WAIANAE VLY*   NOT AVBL
KUAOKALA*      NOT AVBL
HONOULIUULI*   NOT AVBL
MOKUOLOE IS*     N/A     77 N/A N/A W2          N/A
PALEHUA*       NOT AVBL
WAIAWA PHB*    NOT AVBL
$$

HIZ012>013-211200-
MOLOKAI-

CITY           SKY/WX    TMP DP  RH WIND       PRES   REMARKS
MOLOKAI AIRPT  PTCLDY    75  68  78 NE5       29.94F
KALAUPAPA      NOT AVBL
MAKAPULAPAI*   NOT AVBL
MOLOKAI 1*     NOT AVBL
PUU ALII*        N/A     59  58  97 CALM        N/A
$$

HIZ016-211200-
KAHOOLAWE-

CITY           SKY/WX    TMP DP  RH WIND       PRES   REMARKS
KAHOOLAWE*     NOT AVBL
HAKIOAWA*      NOT AVBL
HONOKANAIA*    NOT AVBL
KANELOA*         N/A     73  68  83 NE6G14      N/A
KEALIALALO*    NOT AVBL
LUA MAKIKA*    NOT AVBL
$$

HIZ014>015-211200-
LANAI-

CITY           SKY/WX    TMP DP  RH WIND       PRES   REMARKS
LANAI CITY     FAIR      70 N/A N/A E5        29.99F
LANAI 1*       NOT AVBL
$$

HIZ017>028-211200-
MAUI-

CITY           SKY/WX    TMP DP  RH WIND       PRES   REMARKS
KAHULUI        PTCLDY    72  61  68 CALM      29.94S
KAPALUA-W MAUI NOT AVBL
HANA AIRPORT   CLEAR     73  66  78 CALM      29.96F
HANA*            N/A     73 N/A N/A S3          N/A
HALEAKALA SUMM   N/A     50  30  46 NE20        N/A  VSB 0
MAALAEA BAY*   NOT AVBL
HALEAKALA*     NOT AVBL
KAUPO GAP*     NOT AVBL
KULA 1*          N/A     55  35  46 E3          N/A
$$

HIZ023>026-211200-
BIG ISLAND OF HAWAII COAST AND LOWER SLOPES-

CITY           SKY/WX    TMP DP  RH WIND       PRES   REMARKS
KAILUA KONA    MOCLDY    79  66  64 SE7       29.91F
HILO           PTCLDY    72  64  76 W8        29.94F
HONOKAA*       NOT AVBL
KAWAIHAE MWT*  NOT AVBL
KAWAIHAE*        N/A     79 N/A N/A N3          N/A
SOUTH POINT*     N/A     72 N/A N/A NE8         N/A
UPOLU AIRPORT*   N/A     75 N/A N/A SE7         N/A
KAMUELA*       SUNNY     55  52  88 E6        30.05R
HAKALAU*         N/A     48  27  43 W3          N/A
KALOKO-HONOKO* NOT AVBL
PALI 2*          N/A     61  59  94 N3          N/A
KEALAKOMO*       N/A     75  66  73 N6          N/A
KAUPULEHU*     NOT AVBL
KAPAPALA*        N/A     64  60  88 NW5         N/A
LOWER KAHUKU*    N/A     61  61 100 CALM        N/A
PUHE CS*         N/A     75  66  73 NE3         N/A
PUHO CS*         N/A     72  62  72 E3          N/A
PTA KEAMUKU*   NOT AVBL
WAIKOLOA*      NOT AVBL
$$

HIZ027>028-211200-
BIG ISLAND OF HAWAII INTERIOR AND SUMMMITS-

CITY           SKY/WX    TMP DP  RH WIND       PRES   REMARKS
BRADSHAW FIELD PTCLDY    54  31  40 SE3       30.27F
MK VISITOR CEN   N/A     50  25  37 VRB3        N/A
MAUNA KEA*       N/A     41  -4  15 CALM        N/A
MAUNA LOA*     NOT AVBL
MAUNA LOA 1*   NOT AVBL
PTA KIPUKA*      N/A     52  45  76 SE3         N/A
PTA RANGE 17*    N/A     54  39  58 E3          N/A
PTA WEST*        N/A     54  48  82 SE10        N/A
NENE CABIN*      N/A     50  43  76 N5          N/A
AHUMOA*        NOT AVBL
PTA PORTABLE*  NOT AVBL
PUU MALI*        N/A     59  10  14 S5          N/A
$$

HIC003-211200-
NORTHWEST ISLANDS-

CITY           SKY/WX    TMP DP  RH WIND       PRES   REMARKS
MIDWAY ISLAND  MOCLDY    72  70  94 NW3       29.98S
MIDWAY NOS*      N/A     73 N/A N/A MISG      29.96F
FRENCH FRIGATE NOT AVBL
$$

PHZ110>124-180-211200-
BUOY REPORTS

STATION/POSITION TIME  TEMP    WIND        PRES    WAVE   SWELL
                       AIR SEA DIR/SP/G            HT/PER HT/DIR
                 (UTC) (F)     (DEG/KT/KT) (MB)    (FT/S) (FT/D)
BUOY 51101       1110   79 81  230/  6/  8 1012.4
BUOY 51100       NOT AVBL
BUOY 51002       1110   80 81   80/ 14/ 16 1012.2
BUOY 51003       1110      83              1013.7
BUOY 51004       1110   79 81   80/ 12/ 16 1012.1
WAIMEA BAY#      1107      82                N/A     3/ 8   2/ 30
MOKAPU POINT#    1056      82                N/A     4/11   2/ 50
LANAI#           1056      82                N/A     3/12   2/200
BARBERS PT#      1056      82                N/A     4/11   2/190
PAUWELA#         NOT AVBL
HILO#            1113      80                N/A     5/11   3/ 50
KANEOHE BAY#     1056      82                N/A     4/11   2/ 50
KANEOHE BAY 2#   NOT AVBL
HANALEI#         1056      82                N/A     5/ 8   2/ 60
KAHULUI HARBOR   1054   75 82  150/  1/  2 1013.7F
HONOLULU HARBOR  1054   77 83  100/  2/  3 1013.0F
PEARL HARBOR#    1030      82                N/A     3/ 6   2/170
KILO NALU        NOT AVBL
HILO HARBOR      1054   72 81  200/  2/  4 1012.5F
MOKUOLOE         1036   77 83   CALM  /  4 1012.8F
NAWILIWILI       1054   74 86  260/  2/  3 1013.3F
WHOTS BUOY       NOT AVBL
BUOY 51028       NOT AVBL
$$

......................KEY........................................
  SKY/WX - SKY CONDITIONS/PRESENT WEATHER
  TMP    - TEMPERATURE IN FAHRENHEIT
  DWPT   - DEWPOINT IN FAHRENHEIT
  RH     - RELATIVE HUMIDITY IN PERCENT
  WIND   - DIRECTION AND SPEED /MPH FOR ISLANDS...KTS FOR BUOYS/
  PRES   - MEAN SEA LEVEL PRESSURE IN INCHES OF HG
  VSB    - VISIBILITY IN MILES
  HX     - HEAT INDEX
  WCI    - WIND CHILL INDEX
  VRB    - VARIABLE WIND DIRECTION
  N/A    - NOT AVAILABLE




USA.gov is the U.S. government's official web portal to all federal, state and local government web resources and services.